This demonstration page uses our WeatherBlox Daily Observations layout. Learn more.

Left ArrowRight Arrow

Hourly Observations for February 29, 2016

Temp ( °F °C ) Dew Point ( °F °C ) Humidity (%) Winds ( mph kmh ) Pressure ( in mb ) Visibility ( mi km ) Precip ( " mm )
12:59 am 00:59 Clear 54 12.2 34 1.1 47 47 SSW 13 20 29.94 1014 10 16 0.00 0.00
1:59 am 01:59 Clear 52 11.1 34 1.1 50 50 SSW 13 20 29.92 1013 10 16 0.00 0.00
2:59 am 02:59 Clear 52 11.1 34 1.1 50 50 SSW 12 19 29.89 1012 10 16 0.00 0.00
3:59 am 03:59 Clear 53 11.7 33 0.6 47 47 SSW 17 28 29.86 1011 10 16 0.00 0.00
4:59 am 04:59 Clear 52 11.1 33 0.6 49 49 SSW 22 35 29.85 1011 10 16 0.00 0.00
5:59 am 05:59 Clear 51 10.6 32 0 48 48 SSW 20 31 29.84 1011 10 16 0.00 0.00
6:59 am 06:59 Mostly Sunny 51 10.6 32 0 48 48 SSW 10 17 29.84 1011 10 16 0.00 0.00
7:59 am 07:59 Partly Cloudy 55 12.8 33 0.6 44 44 SW 17 28 29.84 1011 10 16 0.00 0.00
8:59 am 08:59 Mostly Cloudy 58 14.4 34 1.1 41 41 SW 17 28 29.85 1011 10 16 0.00 0.00
9:59 am 09:59 Mostly Cloudy 60 15.6 34 1.1 38 38 WSW 16 26 29.85 1011 10 16 0.00 0.00
10:59 am 10:59 Partly Cloudy 65 18.3 35 1.7 33 33 WSW 16 26 29.85 1011 10 16 0.00 0.00
11:59 am 11:59 Partly Cloudy 68 20 37 2.8 32 32 WSW 18 30 29.84 1011 10 16 0.00 0.00
12:59 pm 12:59 Partly Cloudy 69 20.6 37 2.8 31 31 W 15 24 29.84 1011 10 16 0.00 0.00
1:59 pm 13:59 Mostly Sunny 70 21.1 36 2.2 29 29 W 13 20 29.86 1011 10 16 0.00 0.00
2:59 pm 14:59 Mostly Sunny 68 20 34 1.1 28 28 WNW 18 30 29.88 1012 10 16 0.00 0.00
3:59 pm 15:59 Mostly Sunny 68 20 33 0.6 27 27 W 14 22 29.90 1012 10 16 0.00 0.00
4:59 pm 16:59 Sunny 66 18.9 34 1.1 30 30 W 9 15 29.92 1013 10 16 0.00 0.00
5:59 pm 17:59 Clear 64 17.8 32 0 30 30 W 6 9 29.95 1014 10 16 0.00 0.00
7:59 pm 19:59 Clear 62 16.7 30 -1.1 30 30 W 7 11 30.01 1016 10 16 0.00 0.00
8:59 pm 20:59 Clear 52 11.1 34 1.1 50 50 Calm 30.03 1017 10 16 0.00 0.00
9:59 pm 21:59 Clear 50 10 33 0.6 52 52 Calm 30.04 1017 10 16 0.00 0.00
10:59 pm 22:59 Clear 49 9.4 33 0.6 55 55 Calm 30.06 1018 10 16 0.00 0.00
11:59 pm 23:59 Clear 46 7.8 34 1.1 63 63 Calm 30.07 1018 10 16 0.00 0.00

Powered by AerisWeather